Location: *
(51.0333°S, 178.4667°E)
Time: 05:17:28
(UTC+00:00)

STARLINK-62 - Pass Details

Date: 15 November 2019
Orbit: 529 x 530 km, 53.0° (Epoch: 10 December)

Event Time Altitude Azimuth Distance (km) Brightness Sun altitude
Rises 09:07:18 0° 270° (W) 2,679 7.7 -11.8°
Reaches altitude 10° 09:09:32 10° 266° (W) 1,791 6.9 -12.1°
Maximum altitude 09:13:35 65° 183° (S) 593 4.0 -12.5°
Drops below altitude 10° 09:17:39 10° 100° (E) 1,798 6.0 -12.8°
Enters shadow 09:19:26 - 97° (E) 2,506 6.7 -13.0°
